Tacoma Narrows, WA

6:49 PM PDT on May 27, 2017 (GMT -0700)
Tacoma Narrows

Weather History for KTIW - November, 2012

Change the Weather History Date:

Monday, November 12, 2012

  Actual Average Record
Temperature  
Mean Temperature 49 °F -  
Max Temperature 54 °F 49 °F 59 °F (2013)
Min Temperature 44 °F 41 °F 32 °F (2000)
Degree Days  
Heating Degree Days 16    
Moisture  
Dew Point 45 °F    
Average Humidity 88    
Maximum Humidity 96    
Minimum Humidity 75    
Precipitation  
Precipitation 0.12 in - - ()
Sea Level Pressure  
Sea Level Pressure 30.14 in    
Wind  
Wind Speed 6 mph (South)    
Max Wind Speed 15 mph    
Max Gust Speed 21 mph    
Visibility 8 miles    
Events Rain    
Averages and records for this station are not official NWS values.
T = Trace of Precipitation, MM = Missing Value Source: NWS Daily Summary

Daily Weather History Graph

Daily Weather History Graph

Search for Another Location

Airport or City:

Trip Planner

Search our weather history database for the weather conditions in past years. The results will help you decide how hot, cold, wet, or windy it might be!

Date:

Astronomy

Nov. 12, 2012 Rise Set
Actual Time 7:10 AM PST 4:37 PM PST
Civil Twilight 6:37 AM PST 5:10 PM PST
Nautical Twilight 6:00 AM PST 5:47 PM PST
Astronomical Twilight 5:24 AM PST 6:23 PM PST
Moon 5:39 AM PST (11/12) 3:48 PM PST (11/12)
Length of Visible Light 10h 32m
Length of Day
9h 26m
Waning Crescent, 2% of the Moon is Illuminated
Nov 12
Waning Crescent
Nov 13
New
Nov 20
First Quarter
Nov 28
Full
Dec 6
Last Quarter

Hourly Weather History & Observations

Time (PST) Temp. Windchill Dew Point Humidity Pressure Visibility Wind Dir Wind Speed Gust Speed Precip Events Conditions
12:53 AM 45.0 °F 41.8 °F 43.0 °F 93% 30.09 in 4.0 mi NNE 5.8 mph - 0.03 in Rain Light Rain
1:42 AM 44.6 °F 42.2 °F 42.8 °F 93% 30.08 in 5.0 mi NE 4.6 mph - 0.03 in Rain Light Rain
1:53 AM 44.1 °F 40.8 °F 43.0 °F 96% 30.09 in 4.0 mi NE 5.8 mph - 0.03 in Rain Light Rain
2:53 AM 44.1 °F 41.5 °F 43.0 °F 96% 30.09 in 5.0 mi NE 4.6 mph - 0.00 in Rain Light Rain
3:53 AM 45.0 °F - 43.0 °F 93% 30.09 in 5.0 mi Calm Calm - 0.03 in Rain Light Rain
4:21 AM 44.6 °F - 42.8 °F 93% 30.08 in 5.0 mi Calm Calm - 0.00 in Rain Light Rain
4:48 AM 44.6 °F - 42.8 °F 93% 30.09 in 6.0 mi Calm Calm - 0.01 in Rain Light Rain
4:53 AM 45.0 °F - 43.0 °F 93% 30.10 in 6.0 mi Calm Calm - 0.01 in   Overcast
5:31 AM 46.4 °F - 42.8 °F 87% 30.08 in 9.0 mi Calm Calm - 0.01 in   Overcast
5:53 AM 46.0 °F - 44.1 °F 93% 30.09 in 3.0 mi Calm Calm - 0.01 in Rain Light Rain
6:35 AM 46.4 °F 43.5 °F 44.6 °F 93% 30.09 in 10.0 mi South 5.8 mph - 0.01 in   Overcast
6:53 AM 46.9 °F - 44.1 °F 90% 30.10 in 10.0 mi SSW 8.1 mph - 0.01 in   Overcast
7:53 AM 48.9 °F - 45.0 °F 86% 30.12 in 10.0 mi SSW 6.9 mph - N/A   Overcast
8:53 AM 48.9 °F - 45.0 °F 86% 30.13 in 10.0 mi South 12.7 mph 18.4 mph N/A   Overcast
9:15 AM 50.0 °F - 44.6 °F 82% 30.12 in 10.0 mi South 15.0 mph 20.7 mph N/A   Overcast
9:42 AM 50.0 °F - 46.4 °F 87% 30.13 in 10.0 mi SSW 13.8 mph - N/A   Overcast
9:53 AM 50.0 °F - 46.0 °F 86% 30.14 in 10.0 mi South 11.5 mph - N/A   Overcast
10:53 AM 52.0 °F - 46.0 °F 80% 30.15 in 10.0 mi South 13.8 mph 19.6 mph N/A   Mostly Cloudy
11:53 AM 52.0 °F - 46.0 °F 80% 30.16 in 10.0 mi South 8.1 mph - N/A   Overcast
12:53 PM 54.0 °F - 46.0 °F 75% 30.15 in 10.0 mi South 11.5 mph 17.3 mph N/A   Mostly Cloudy
1:53 PM 53.1 °F - 46.0 °F 77% 30.16 in 10.0 mi South 9.2 mph - N/A   Mostly Cloudy
2:53 PM 52.0 °F - 46.0 °F 80% 30.16 in 10.0 mi SSW 9.2 mph - N/A   Mostly Cloudy
3:53 PM 52.0 °F - 46.0 °F 80% 30.17 in 10.0 mi SSW 6.9 mph - N/A   Mostly Cloudy
4:53 PM 51.8 °F - 46.4 °F 82% 30.17 in 10.0 mi South 5.8 mph - N/A   Overcast
5:53 PM 51.1 °F - 46.0 °F 83% 30.18 in 10.0 mi South 4.6 mph - 0.00 in   Overcast
6:53 PM 51.1 °F - 46.0 °F 83% 30.19 in 10.0 mi South 8.1 mph - N/A   Overcast
7:53 PM 50.0 °F - 46.0 °F 86% 30.20 in 10.0 mi SSW 10.4 mph - N/A   Overcast
8:29 PM 50.0 °F - 46.4 °F 87% 30.20 in 9.0 mi South 11.5 mph - N/A   Overcast
8:53 PM 48.9 °F - 46.9 °F 93% 30.21 in 10.0 mi South 10.4 mph - 0.00 in   Overcast
9:35 PM 48.2 °F - 46.4 °F 93% 30.20 in 10.0 mi South 5.8 mph - 0.00 in   Overcast
9:53 PM 48.9 °F - 46.9 °F 93% 30.21 in 10.0 mi South 8.1 mph - 0.00 in   Overcast
10:53 PM 48.9 °F - 46.0 °F 90% 30.22 in 10.0 mi South 6.9 mph - N/A   Mostly Cloudy
11:53 PM 48.9 °F - 46.0 °F 90% 30.22 in 10.0 mi Calm Calm - N/A   Overcast